GFSSW_250_rhum_192.txt.gz
RH
99 89 83 74 70 84 63 79 88 100 100 100 100 100 97 85 75 51 38 42 54 100 100 91 78 55 84 100 100 100 96 78 50 42 39 25 29 23 36 36 30 31 38 66 68
97 91 82 61 74 78 56 51 52 65 83 93 100 93 83 62 48 34 28 37 81 100 100 83 88 92 100 100 100 100 100 87 66 53 52 40 33 32 34 45 32 35 34 51 64
100 89 68 65 78 80 64 40 38 44 89 100 100 92 60 48 40 33 29 27 27 28 32 36 36 36 37 51 80 97 100 88 76 56 59 47 44 40 39 41 38 33 34 41 42
92 88 74 60 76 62 68 55 45 41 42 68 69 68 55 40 43 48 38 36 32 38 33 32 41 29 32 36 40 57 77 76 76 61 60 62 60 51 40 46 40 38 39 36 40
100 99 87 70 73 56 61 59 51 47 37 29 31 39 48 37 36 48 54 42 41 44 43 41 63 44 30 28 33 46 63 61 61 72 80 69 72 66 66 57 41 45 46 34 35
99 100 96 78 68 54 56 57 46 41 32 32 28 38 44 36 35 42 41 36 39 49 53 52 79 54 55 59 53 34 45 54 50 48 47 51 75 81 96 84 59 61 49 28 37
90 100 98 70 64 49 49 40 41 49 36 31 26 32 43 38 33 30 38 38 37 37 46 63 70 73 74 65 60 48 65 64 60 52 53 46 56 80 97 84 81 89 67 55 51
83 93 100 75 47 43 42 44 40 38 37 31 26 29 34 37 44 34 34 37 45 36 34 36 37 38 39 63 54 34 41 46 57 60 56 48 70 73 72 76 98 99 89 98 99
87 79 100 51 48 42 38 46 40 21 26 31 27 35 30 34 36 38 37 40 43 47 44 44 40 40 37 37 35 35 46 48 46 59 65 54 51 59 71 65 63 76 56 61 82
87 72 65 52 31 35 36 45 42 44 40 32 28 33 33 46 33 38 43 47 52 48 50 57 53 55 56 61 57 54 57 66 70 66 70 72 75 67 63 53 59 81 85 74 75
84 80 54 33 30 34 32 44 34 46 48 45 26 50 36 55 54 34 46 63 63 64 71 73 58 79 70 78 84 100 92 87 100 98 80 87 92 96 88 68 93 82 87 84 93
73 82 54 47 48 46 40 38 50 31 48 64 46 44 55 40 68 46 34 31 54 60 80 86 60 94 95 93 90 87 100 100 100 100 100 96 74 100 100 100 100 100 100 100 100
65 52 40 53 54 59 52 52 48 44 36 54 63 62 63 73 79 77 39 53 61 63 92 71 96 100 100 100 100 100 100 100 100 100 100 100 88 100 100 100 100 100 95 100 100
41 67 40 70 62 79 85 100 68 67 77 55 51 68 88 96 43 50 61 66 59 66 44 48 98 100 100 100 100 62 100 100 88 100 100 100 100 100 100 100 100 100 100 76 88
67 86 66 87 84 99 89 100 94 73 100 99 77 63 38 73 63 52 80 76 81 64 58 72 68 58 93 100 100 100 96 80 94 100 59 84 100 89 100 100 100 100 100 100 96
100 95 97 100 89 99 100 100 100 100 100 90 64 58 42 32 38 49 71 71 80 78 94 92 100 89 48 89 100 96 100 100 100 84 80 43 65 98 68 74 76 79 95 92 54
100 100 100 100 100 100 100 100 100 100 80 71 74 56 90 96 68 96 100 100 100 100 100 100 100 100 83 56 50 62 89 74 98 100 100 100 90 49 77 59 55 54 66 88 86
100 100 100 100 100 100 100 100 100 96 99 100 93 77 100 100 76 100 86 100 100 98 100 100 100 100 100 100 98 86 51 77 95 59 61 72 69 60 58 54 36 69 50 46 65
100 100 100 100 100 98 72 96 69 100 100 100 100 100 100 100 100 100 93 99 100 100 75 99 100 100 100 100 91 68 58 82 90 54 44 44 48 50 100 100 100 100 99 61 46
100 100 100 96 100 100 100 100 94 96 100 100 100 100 100 100 100 100 100 100 100 100 81 79 94 100 81 99 100 100 71 72 91 100 100 100 100 100 100 100 100 100 100 100 98
97 100 100 99 100 100 95 100 100 100 100 100 100 100 100 100 98 100 100 100 100 100 98 96 98 100 100 100 100 100 100 100 100 100 100 100 100 100 100 100 100 100 100 100 100
100 100 100 100 100 100 100 100 100 100 100 100 100 100 100 100 100 100 100 100 100 100 100 100 95 80 100 100 100 83 100 100 100 100 100 88 100 99 100 100 99 100 90 69 43
100 100 100 100 100 100 100 97 100 100 100 100 100 100 100 100 100 100 100 100 100 100 85 98 100 92 69 100 100 100 67 95 100 100 67 70 56 74 76 69 51 63 39 24 29
100 100 100 100 100 100 100 100 100 100 100 100 100 100 100 100 100 98 100 100 96 98 100 100 90 71 55 67 91 58 58 61 80 76 65 64 70 32 18 13 13 12 14 14 15
100 100 100 100 100 100 100 100 97 99 100 100 100 100 100 100 100 100 100 92 100 76 92 87 62 60 58 55 58 65 82 73 62 97 100 77 34 11 10 9 8 8 8 10 11
100 100 100 100 100 100 100 100 100 100 100 100 100 100 100 82 80 83 96 100 99 93 77 65 48 58 53 63 59 58 44 88 88 64 23 11 8 10 7 6 6 6 6 7 7
100 100 100 100 100 100 100 100 100 100 100 100 100 90 79 97 97 80 71 73 61 56 71 56 52 83 51 74 52 25 81 26 25 15 11 6 5 6 7 9 10 8 11 10 10

GFSSW_250_rhum_195.txt.gz
RH
100 100 100 100 99 97 100 88 77 78 76 53 60 95 100 100 100 98 85 75 55 38 31 36 98 97 94 100 98 71 98 100 93 99 87 77 50 47 43 45 39 32 33 34 34
100 100 99 98 100 100 100 85 76 84 72 51 42 49 57 87 99 86 60 44 34 31 34 29 34 66 83 71 64 59 63 68 78 99 100 93 57 52 40 54 49 32 43 41 43
94 85 90 100 99 100 98 75 72 65 71 66 40 36 63 71 70 62 53 40 31 31 36 31 37 36 30 36 31 24 23 23 41 60 89 95 69 44 63 64 66 40 42 49 45
100 100 95 100 100 96 100 96 69 63 56 61 54 45 40 35 32 40 44 35 35 37 45 38 42 40 40 46 44 24 21 21 26 40 36 58 62 48 52 77 79 43 27 51 75
100 100 100 100 100 100 100 94 89 71 66 62 62 54 43 30 29 45 38 33 46 48 40 37 43 50 55 66 73 36 61 37 42 34 32 38 40 39 43 53 56 83 42 38 80
100 100 100 100 100 95 100 100 95 56 63 52 61 62 36 35 33 34 40 40 42 38 37 34 35 39 44 59 56 55 65 57 63 33 36 40 45 50 51 43 44 78 94 73 57
100 100 100 100 100 100 100 100 100 70 47 48 50 48 50 33 31 33 45 44 34 33 35 34 32 34 34 34 35 44 42 44 62 51 40 41 46 51 49 46 50 52 51 73 74
100 100 99 100 100 100 98 100 100 82 63 43 47 46 52 38 30 32 35 42 44 35 34 36 38 40 45 45 51 52 54 43 44 50 49 49 56 61 55 43 58 57 52 51 56
100 100 100 96 100 100 100 94 100 90 50 47 42 46 42 39 32 32 33 36 46 41 34 36 35 48 53 64 71 63 61 71 75 81 83 72 70 86 93 76 69 68 82 89 69
100 100 100 100 100 100 100 100 84 73 36 39 37 48 31 34 40 39 32 32 38 45 38 29 30 43 56 61 70 74 75 80 80 78 86 88 96 95 100 100 100 99 100 95 86
100 99 95 100 100 100 100 99 88 55 35 36 35 48 36 38 44 46 33 37 34 45 50 26 34 51 57 43 37 51 80 92 100 100 100 100 100 100 100 96 100 100 100 100 100
97 96 80 100 100 100 100 100 96 67 40 38 36 46 61 52 56 83 60 49 42 38 42 43 38 46 53 48 40 33 30 86 96 100 99 96 100 99 100 100 100 100 100 100 100
96 96 62 96 100 100 100 100 85 61 35 42 42 35 50 42 34 49 69 73 63 66 79 59 54 47 65 80 74 48 47 38 38 57 100 100 94 100 100 100 100 100 97 97 100
80 90 66 100 89 74 70 80 62 44 40 31 62 66 64 49 38 32 38 44 51 74 98 40 29 35 42 66 100 85 69 71 74 55 56 100 75 93 100 100 100 100 98 100 82
70 52 73 80 66 64 60 60 63 56 59 46 58 86 100 95 61 57 92 54 65 84 58 37 36 44 60 87 99 60 51 98 100 100 89 48 66 67 77 96 99 99 100 93 70
100 98 78 79 86 78 66 79 63 78 77 74 58 73 98 96 98 75 100 100 82 39 45 44 72 62 84 98 100 93 95 98 100 100 94 100 100 46 91 78 60 73 65 58 81
100 97 96 99 88 90 72 85 76 100 96 100 88 87 75 87 90 98 86 82 72 76 76 77 75 77 88 82 90 100 83 83 77 95 63 86 100 69 56 71 61 53 57 50 45
100 100 84 90 100 100 92 83 98 100 100 100 100 100 100 100 89 83 85 92 87 100 87 70 100 99 100 100 100 87 100 100 91 71 57 55 57 75 77 85 66 43 44 44 49
100 100 88 100 99 100 98 100 100 100 100 100 100 100 100 100 98 100 78 74 87 91 100 100 100 100 100 100 100 100 100 100 100 99 83 90 67 53 52 69 93 96 100 87 95
100 100 100 100 100 100 98 99 100 100 100 100 100 97 80 93 83 72 72 70 96 100 100 99 100 100 100 100 93 93 100 100 100 91 67 68 81 76 91 100 100 100 100 100 100
100 100 100 100 100 100 100 100 100 99 90 100 100 100 100 100 100 100 95 100 95 99 100 100 92 100 100 87 89 95 100 100 100 100 100 91 91 97 100 100 92 100 100 100 100
100 100 100 100 100 100 100 100 100 100 100 99 100 82 88 100 100 100 100 100 100 100 100 100 91 87 79 100 100 100 100 100 100 100 100 99 75 100 96 95 57 60 71 69 68
100 100 100 100 100 100 97 87 89 97 100 100 100 100 100 100 100 100 98 98 85 84 99 89 84 100 100 100 100 100 100 100 100 100 100 100 100 100 81 60 69 74 82 77 51
86 100 100 100 100 100 100 100 100 100 100 95 82 95 96 100 100 94 93 98 94 86 83 96 98 100 100 100 100 100 100 100 100 98 91 93 85 75 62 59 66 60 44 30 21
100 100 100 100 100 100 100 100 100 100 100 100 100 100 100 100 100 100 100 100 95 100 97 89 94 100 92 80 80 100 91 94 80 75 77 70 64 55 58 57 41 21 15 12 10
100 100 100 100 100 100 100 100 100 100 100 100 100 100 100 100 100 100 100 100 100 100 92 98 75 94 89 100 84 50 49 79 69 62 62 63 52 72 32 24 13 11 9 7 6
100 100 100 100 100 100 100 100 100 100 100 100 100 100 100 100 100 100 100 87 98 100 100 99 100 99 86 93 72 51 88 52 54 53 51 46 29 18 12 12 8 6 6 6 5

GFSSW_250_rhum_198.txt.gz
RH
74 74 100 100 100 100 100 100 99 100 97 98 82 74 65 65 67 80 98 85 89 75 63 51 42 37 37 58 81 100 100 88 82 90 91 88 98 100 94 82 69 55 46 45 43
100 73 98 100 100 100 100 100 100 100 98 92 82 70 79 61 47 45 54 56 56 53 42 35 33 41 38 31 28 31 62 60 43 26 58 66 76 99 100 100 92 59 59 55 50
98 73 75 100 100 100 100 100 100 98 98 94 82 63 64 58 62 39 49 44 35 32 31 30 32 46 42 39 34 40 46 35 19 19 24 32 33 56 79 76 78 55 50 63 85
100 99 75 87 100 100 100 100 100 100 100 100 100 82 69 51 65 60 45 37 35 36 34 30 31 48 43 39 39 52 66 42 42 36 30 34 50 40 35 38 40 34 33 51 100
100 100 87 84 100 100 100 100 100 100 100 100 100 89 90 62 56 71 55 38 31 38 36 34 40 41 38 40 39 42 54 56 52 56 54 58 42 49 42 42 46 44 39 41 96
100 100 100 87 87 100 100 100 100 100 100 100 100 99 69 80 50 80 65 43 34 35 38 40 33 36 34 31 34 35 41 42 51 49 50 50 50 50 42 38 43 43 46 48 45
91 100 100 100 96 91 97 100 100 100 100 100 100 100 74 55 48 81 58 42 34 35 36 38 34 36 30 32 40 43 45 46 46 53 62 49 57 58 61 57 58 44 44 41 55
93 100 100 100 100 95 100 100 100 100 100 100 100 100 98 72 50 57 63 44 35 35 35 38 40 30 30 37 44 48 54 63 60 62 65 56 78 89 95 90 92 100 100 99 88
94 100 100 100 100 92 95 100 100 97 100 100 98 100 100 80 67 47 66 65 46 37 37 36 42 45 33 28 39 46 52 54 64 64 55 56 79 89 93 92 91 99 100 100 100
91 100 100 100 100 100 100 100 100 98 100 100 100 100 98 60 52 43 53 62 45 34 40 31 39 46 44 29 34 39 29 32 29 32 29 44 72 90 100 100 100 100 96 100 100
91 100 100 100 100 100 100 100 100 91 100 100 100 100 95 85 62 47 38 58 35 41 50 47 36 36 40 58 38 37 40 41 53 43 26 26 34 52 79 64 100 100 100 100 100
100 100 100 100 100 100 100 96 100 93 100 100 100 100 100 63 47 52 44 61 46 41 50 68 51 42 49 38 41 39 36 29 31 41 61 46 31 33 53 56 78 100 99 72 63
100 94 100 100 100 100 100 100 97 85 78 100 100 100 100 89 64 54 61 66 80 73 78 60 42 53 63 58 46 63 41 36 35 36 41 65 48 79 76 92 86 81 72 83 100
80 75 87 82 100 100 100 100 94 98 71 77 100 100 100 99 55 46 62 65 59 57 59 49 41 60 72 38 49 53 68 35 23 40 42 46 37 100 100 100 99 90 98 73 99
90 87 78 75 95 98 97 100 91 100 88 72 79 96 100 81 72 47 42 52 66 72 49 39 40 42 37 42 57 50 38 32 45 54 78 80 80 100 100 79 61 100 98 51 54
100 95 95 96 99 82 78 86 70 92 84 81 53 52 76 92 79 44 52 56 59 55 61 68 75 83 89 91 100 78 49 52 74 80 63 96 77 87 100 99 78 90 77 84 69
100 100 100 100 100 75 80 96 67 75 82 81 72 54 42 74 93 88 88 84 91 100 97 99 81 75 73 76 68 52 47 89 89 87 100 100 100 100 99 91 89 89 87 84 55
100 100 87 100 100 100 100 100 72 99 92 82 89 87 62 49 54 65 86 100 100 100 100 100 100 100 100 98 88 49 46 37 54 73 51 92 83 66 56 67 42 70 100 100 98
100 100 92 100 100 100 100 100 84 82 100 98 99 67 86 71 57 68 73 69 76 86 97 98 99 100 100 99 75 52 41 56 63 61 75 98 79 64 62 57 45 45 45 46 58
98 100 100 100 100 100 100 100 100 91 100 100 100 100 87 78 72 66 84 79 67 60 60 71 100 92 75 75 67 78 95 84 74 62 84 72 78 70 66 68 85 88 73 67 67
91 90 100 100 100 100 100 100 100 100 100 80 75 100 100 70 100 100 93 51 63 75 58 50 44 60 74 85 82 79 84 90 98 100 98 68 61 45 50 66 76 96 98 100 100
95 100 100 100 100 100 100 100 100 100 100 100 68 71 99 100 94 54 68 67 57 61 72 69 86 78 68 64 99 100 100 100 86 76 63 48 29 50 76 65 63 83 96 100 100
95 100 100 100 100 100 100 100 100 96 100 100 100 100 100 100 100 100 88 100 100 100 93 100 100 100 100 100 100 100 100 99 79 63 53 59 50 70 52 63 85 80 84 88 79
92 100 100 100 100 100 100 100 100 100 100 100 100 100 100 100 100 100 100 100 75 69 78 90 100 89 69 74 77 74 87 100 100 100 100 96 95 75 78 95 90 81 95 86 85
84 100 100 100 100 100 100 100 100 100 100 100 100 100 100 100 100 96 96 95 99 100 100 100 100 100 100 100 100 100 98 100 100 100 100 91 100 97 99 100 91 96 85 68 65
98 99 100 100 100 100 100 100 100 100 100 100 100 100 100 100 100 100 100 100 100 100 100 100 100 100 86 100 90 75 100 100 79 92 100 100 93 88 76 70 61 48 52 47 41
78 100 100 100 100 96 85 100 100 100 100 100 100 100 100 100 100 100 100 100 100 100 100 100 100 100 100 100 98 100 100 100 100 100 94 85 71 65 62 49 40 42 33 20 15

GFSSW_250_rhum_201.txt.gz
RH
97 87 100 76 60 74 88 100 98 100 100 96 100 100 100 84 69 61 47 46 46 49 65 79 76 68 47 33 34 39 40 37 85 99 91 76 88 100 100 98 98 88 71 68 67
92 84 100 100 70 73 70 91 100 100 100 100 100 100 91 95 72 62 56 48 48 46 37 41 38 31 31 28 35 43 40 34 31 50 65 43 39 45 61 71 78 87 98 98 74
100 100 100 92 83 64 73 70 97 100 100 100 100 100 100 100 98 72 58 52 52 49 40 36 34 32 31 29 43 43 36 39 32 31 27 29 39 44 53 51 52 54 52 56 50
98 92 100 100 100 96 80 73 88 100 100 100 100 100 100 100 100 95 66 54 56 59 56 50 32 30 30 28 44 44 46 52 44 42 36 37 51 48 53 46 49 47 52 54 50
100 100 100 99 96 99 100 86 72 92 100 100 100 100 100 100 100 100 90 57 50 58 59 54 33 35 30 28 42 44 42 47 53 62 56 55 56 58 55 36 46 45 46 54 59
100 100 100 99 99 98 100 100 79 91 100 100 100 100 100 100 100 100 100 67 57 48 72 65 43 38 36 35 34 35 35 36 38 40 38 46 57 65 50 60 50 53 62 66 68
100 100 100 95 100 100 100 100 90 88 85 100 94 100 100 100 100 100 100 91 48 47 74 65 45 36 40 36 33 33 38 41 43 39 38 35 67 61 57 53 74 76 87 85 94
100 100 100 100 100 100 100 100 100 80 88 100 100 98 100 100 100 100 100 100 71 54 59 59 41 35 36 41 34 28 27 36 44 50 40 36 62 56 40 48 64 67 64 77 73
100 100 100 100 100 100 100 100 100 100 83 98 100 100 100 100 100 100 100 100 97 73 56 72 45 37 42 38 38 35 30 36 49 42 34 28 32 64 38 46 65 73 85 81 75
100 100 97 95 100 100 100 100 100 100 100 100 100 100 100 100 100 100 100 100 96 66 64 54 75 42 38 34 34 38 39 33 37 29 26 28 29 31 33 36 36 48 62 84 52
100 79 100 100 100 100 100 100 100 100 100 100 100 100 100 100 100 100 100 100 100 70 53 44 58 67 48 42 48 39 57 60 59 51 39 35 33 34 39 49 49 40 34 41 48
91 82 98 100 100 100 100 100 100 100 100 100 100 100 100 100 100 100 100 100 100 99 70 52 43 81 59 48 54 40 49 38 44 44 49 60 64 57 41 33 48 49 62 91 73
78 99 66 100 100 100 92 100 100 100 100 100 100 100 100 100 98 100 100 100 100 91 90 52 48 59 61 55 50 58 64 60 61 62 50 48 58 63 74 54 46 47 52 66 86
80 75 74 96 96 100 100 100 100 100 100 91 100 100 100 100 76 100 100 97 100 100 100 72 58 68 78 68 79 82 68 42 46 68 72 51 56 46 31 50 73 69 77 69 52
89 90 68 80 97 88 94 100 100 100 94 83 84 100 100 100 85 85 100 100 100 100 100 87 76 75 80 85 72 67 53 36 38 57 66 45 62 83 53 32 57 82 98 92 96
100 98 79 83 87 100 95 100 100 100 94 91 79 90 100 100 100 81 71 90 98 90 100 100 97 92 87 68 69 82 65 61 63 53 51 65 96 72 57 30 39 45 50 53 90
100 100 100 90 100 100 100 100 97 100 97 99 90 87 87 79 90 100 90 93 96 94 90 99 86 92 88 100 100 100 100 100 92 88 68 85 94 79 67 50 30 28 32 32 56
100 100 100 100 100 100 100 100 96 94 97 73 90 100 65 68 55 64 97 100 100 96 67 78 83 77 69 81 98 97 89 84 100 100 99 97 96 100 78 43 35 28 32 50 68
100 100 100 100 100 99 100 100 98 79 100 100 98 99 84 62 68 81 89 96 92 99 100 88 97 92 100 97 97 95 100 100 100 100 96 91 89 72 42 39 32 46 69 75 91
100 100 100 100 100 96 100 88 88 71 88 100 95 100 100 98 74 60 56 82 100 100 81 66 79 84 83 79 90 100 100 97 85 84 61 49 66 50 34 31 49 96 100 100 90
100 100 100 100 100 100 100 97 90 100 91 100 100 87 100 100 94 68 54 40 34 47 44 42 32 34 38 37 35 44 62 54 50 51 50 54 36 37 52 95 100 100 88 55 36
100 100 100 100 100 100 100 100 87 100 81 100 100 100 100 100 99 100 99 96 100 85 44 54 42 38 42 44 43 35 33 35 34 48 78 67 54 100 100 64 57 54 73 55 59
100 100 100 100 100 100 100 100 100 81 96 98 98 71 100 100 100 90 95 85 100 79 86 63 63 84 80 75 64 69 58 56 88 100 74 76 64 87 94 99 91 65 71 97 100
100 100 100 100 100 100 100 100 100 100 100 100 100 100 100 100 100 99 100 100 100 100 100 100 100 92 100 100 100 100 100 100 100 99 77 94 100 88 95 80 89 100 99 83 76
100 100 100 100 100 100 100 100 100 100 100 100 100 100 100 100 100 100 93 100 100 100 100 100 100 100 100 100 100 100 100 100 100 100 100 86 88 76 99 96 83 76 70 66 75
100 100 100 100 100 100 100 100 100 100 100 100 100 100 100 100 100 100 100 100 100 100 100 100 100 88 100 100 99 100 100 100 100 100 100 100 100 100 84 64 71 70 73 56 56
45 86 100 100 100 100 100 100 100 100 100 100 100 100 95 98 100 100 100 100 100 100 100 100 100 100 100 100 100 100 100 100 100 100 100 100 89 80 84 73 67 69 71 61 46

GFSSW_250_rhum_204.txt.gz
RH
83 100 100 100 99 100 77 83 90 76 86 89 100 100 100 97 100 100 89 66 50 50 36 28 25 32 35 43 41 31 30 29 30 37 36 69 90 90 86 80 100 100 100 100 100
100 100 100 97 100 96 79 83 100 100 89 97 85 100 95 100 100 100 100 84 74 70 45 30 24 25 33 38 35 33 30 29 42 40 36 38 60 72 56 60 80 90 100 99 100
100 100 100 100 99 100 100 96 78 93 78 100 100 86 97 100 100 100 100 100 85 72 66 36 28 25 33 46 34 29 27 32 41 41 37 40 40 34 48 53 52 55 58 60 57
100 100 100 100 99 82 96 99 91 66 69 84 100 100 100 100 96 97 100 100 100 81 77 52 35 29 36 53 35 31 31 38 44 46 44 31 32 56 55 52 44 46 44 41 39
100 100 100 100 100 98 100 100 100 100 68 70 100 100 100 100 92 98 100 100 100 99 93 68 44 33 29 51 42 32 34 38 40 45 51 44 40 55 47 54 56 58 54 46 43
100 100 98 99 100 100 100 100 100 100 100 79 93 100 100 100 97 94 100 100 100 100 100 87 67 42 26 50 52 38 36 36 37 39 50 55 58 59 45 52 59 62 63 70 61
100 100 100 100 100 100 100 100 100 100 100 99 90 100 100 100 100 100 90 100 88 100 100 100 80 47 38 28 51 39 38 38 37 36 42 40 50 55 47 48 58 63 72 77 67
97 100 100 100 100 100 100 100 100 100 100 100 100 88 100 100 100 100 100 99 90 100 100 100 81 69 47 39 43 39 38 36 34 35 37 41 53 44 29 31 38 34 34 32 47
100 100 100 100 100 100 100 100 100 100 100 100 100 100 100 100 100 100 100 93 97 100 100 100 100 97 73 52 52 45 38 37 34 31 31 32 47 55 29 28 27 22 20 24 30
58 80 100 100 100 100 100 100 100 100 89 100 100 100 100 100 100 100 100 97 99 100 100 100 100 99 74 67 64 54 53 46 40 38 37 37 39 41 30 28 28 30 34 30 27
30 43 99 100 100 100 100 100 95 98 100 100 100 100 100 100 100 100 100 100 100 100 100 100 100 100 79 55 46 78 69 49 40 37 40 44 46 33 47 61 48 56 77 49 39
43 39 75 100 100 100 100 100 100 98 100 100 100 100 100 100 100 100 100 100 94 100 100 100 100 100 100 80 57 43 74 69 51 49 52 46 55 60 59 67 70 85 90 70 49
76 57 66 100 100 100 100 100 100 100 98 100 100 100 100 100 100 100 100 100 100 100 100 90 100 100 100 99 79 56 47 63 68 50 56 56 54 63 61 70 88 81 71 68 58
94 90 97 100 98 92 100 100 100 88 93 95 100 100 100 100 100 100 100 99 100 100 100 79 95 100 100 97 99 66 54 47 68 49 53 67 67 84 79 76 90 100 75 75 83
100 100 100 97 100 92 100 100 98 96 93 77 100 100 93 100 100 100 100 100 100 100 92 68 67 85 100 100 98 100 91 57 77 78 86 99 99 78 65 62 82 100 92 96 99
100 100 100 100 100 100 100 100 100 99 69 54 66 100 100 100 100 100 100 100 100 100 100 100 84 92 99 100 87 84 100 90 98 98 89 100 97 66 59 60 60 60 72 88 100
100 100 100 100 100 100 100 100 100 84 90 74 94 91 100 100 100 100 100 100 100 100 100 100 90 84 78 99 100 100 100 100 90 73 66 71 71 79 85 87 100 98 96 93 100
100 100 100 100 100 90 100 100 100 82 84 74 81 56 88 100 100 100 100 100 99 99 89 85 86 84 86 100 100 100 100 100 99 90 72 58 45 48 59 70 72 73 82 85 100
100 100 100 100 100 100 100 99 100 100 100 100 79 89 100 87 100 100 100 100 100 100 92 77 85 82 96 100 100 98 100 100 99 99 96 84 77 77 75 89 93 93 95 98 98
100 100 100 100 100 100 100 100 97 100 100 98 87 76 77 98 87 84 100 100 100 100 92 84 85 100 100 100 97 93 98 86 67 49 54 59 56 48 51 53 47 53 58 62 66
100 100 100 100 100 100 100 100 95 100 100 88 95 90 68 90 91 93 68 72 95 74 37 51 56 68 82 73 64 74 63 66 69 57 44 42 48 38 32 35 37 39 39 31 32
89 100 100 100 96 96 100 100 100 100 100 94 100 81 68 100 84 99 83 72 97 100 68 64 40 46 61 100 98 74 81 100 99 69 39 54 75 62 55 57 40 41 46 46 53
54 66 81 93 77 89 100 100 96 100 100 100 100 98 67 96 67 72 100 100 69 100 74 100 74 90 63 100 88 49 76 75 64 44 39 45 49 78 100 100 100 98 59 83 74
45 48 56 58 100 85 100 100 78 100 100 100 100 100 100 85 100 91 90 75 77 100 100 98 100 100 100 97 89 73 100 100 94 86 100 100 100 100 100 100 57 69 90 68 97
44 47 38 38 54 68 96 87 100 99 100 100 100 100 100 100 100 100 100 100 100 100 100 100 92 98 100 89 78 100 94 97 100 100 93 94 72 100 100 84 63 87 100 100 100
36 45 34 37 50 100 77 94 100 100 100 100 100 100 100 100 100 100 100 100 100 100 100 100 100 100 100 99 100 100 100 100 100 100 100 100 98 100 85 62 100 100 93 87 70
24 29 39 29 46 66 84 100 100 100 100 100 100 100 100 100 100 100 100 100 97 98 100 100 100 100 100 100 100 100 100 100 89 100 100 100 100 90 75 91 99 89 59 56 58

GFSSW_250_rhum_210.txt.gz
RH
85 100 87 100 100 100 100 100 100 96 100 79 74 86 100 99 70 100 98 98 99 98 96 100 94 99 59 43 27 18 18 16 23 34 32 29 27 18 30 37 36 37 43 64 75
100 100 96 90 97 98 98 100 100 100 100 100 77 100 100 96 69 91 100 100 99 84 93 91 85 92 99 51 40 23 18 17 26 28 34 29 21 23 31 35 38 41 46 64 97
100 100 95 95 96 97 100 100 99 100 100 100 92 100 100 100 79 81 100 99 90 92 80 89 84 81 100 69 49 35 27 20 23 28 39 31 27 24 28 39 46 47 45 55 54
100 100 100 100 100 99 100 100 94 100 100 100 93 100 100 90 88 96 100 100 98 100 100 99 88 82 89 90 59 50 36 22 19 24 34 42 33 30 30 41 49 42 43 50 48
100 100 100 100 100 100 100 99 100 90 100 100 100 99 100 100 90 88 100 99 97 100 97 80 94 92 99 98 68 57 48 40 28 24 29 49 35 38 39 49 43 38 37 44 50
100 100 100 100 100 100 100 100 100 99 100 100 100 100 100 100 98 79 94 82 99 100 98 99 100 96 95 100 85 70 60 48 46 30 31 40 37 38 42 47 46 45 48 43 45
92 100 100 100 100 100 100 100 100 100 100 100 100 100 100 100 100 95 69 91 100 100 100 100 100 100 100 100 100 88 72 74 45 39 44 45 40 37 44 37 38 41 47 54 52
84 77 81 90 100 100 100 100 100 100 97 100 100 100 100 100 100 95 100 99 90 96 100 100 100 100 100 100 100 99 85 80 57 45 60 56 44 40 39 41 48 53 56 55 55
78 83 71 84 97 95 100 100 97 100 100 100 100 100 100 100 100 100 100 100 84 88 95 100 100 100 100 100 100 100 91 69 91 57 72 58 54 46 41 41 50 59 51 46 36
84 85 84 94 81 100 88 100 92 100 100 100 100 100 100 100 100 100 100 100 92 87 79 88 95 100 100 100 100 100 88 96 98 73 61 63 59 52 42 45 44 41 39 40 38
82 42 84 82 87 83 99 100 91 90 100 100 100 100 100 100 100 100 100 100 87 90 100 89 98 100 100 100 100 100 100 100 100 68 77 56 63 44 49 44 43 48 44 42 43
55 67 79 77 81 87 78 72 100 99 98 100 100 75 100 100 100 100 100 100 100 100 93 100 100 100 100 100 100 100 100 100 100 99 59 52 68 71 47 52 58 59 48 48 54
60 49 100 100 97 80 73 73 100 100 92 91 96 68 100 98 100 98 100 100 100 100 100 88 83 78 84 94 100 100 100 100 98 62 48 48 74 86 80 59 52 51 60 59 60
78 62 92 100 100 100 97 82 92 96 98 97 81 59 99 96 50 52 99 100 100 100 100 80 93 99 100 100 100 97 100 99 92 52 60 74 74 61 89 83 76 66 58 59 75
95 97 82 96 96 97 100 95 100 100 100 98 97 68 69 86 99 97 92 100 100 100 100 89 100 100 98 82 92 96 99 93 92 100 97 100 83 81 58 100 95 81 76 72 67
100 100 90 100 98 92 98 100 100 100 100 100 94 67 79 89 96 72 93 100 100 100 100 83 99 92 92 100 100 100 100 100 100 100 96 100 75 88 60 79 90 87 99 100 92
62 88 100 89 97 100 100 100 100 100 100 95 98 100 65 80 96 99 91 100 100 100 100 100 100 100 100 87 63 81 94 99 89 77 59 56 69 100 79 86 97 96 100 100 100
36 79 99 96 100 100 100 100 100 100 100 100 91 96 100 88 71 95 100 92 100 100 100 100 100 100 100 100 100 100 99 77 59 58 78 81 89 93 99 91 82 95 100 100 100
27 46 76 100 100 100 100 100 100 100 100 100 100 100 92 64 59 59 95 100 99 99 96 91 76 99 100 99 100 100 100 100 100 100 100 100 100 80 62 65 88 100 100 100 100
18 33 55 100 100 100 100 100 100 100 100 100 100 99 100 99 61 42 67 100 100 91 100 100 91 65 66 59 64 91 95 100 100 100 100 100 100 99 78 100 100 100 100 100 100
14 21 34 65 84 100 100 100 100 100 100 100 100 100 100 100 98 54 60 79 100 89 78 96 100 85 59 44 48 78 71 76 100 100 98 86 94 90 70 88 100 100 100 100 93
10 11 27 40 74 74 100 100 95 100 100 100 100 100 100 100 96 71 84 60 78 100 97 88 98 100 100 65 52 50 73 61 67 100 100 68 61 83 85 73 54 56 74 67 67
6 10 16 42 44 54 55 100 90 100 100 100 100 100 100 100 100 100 100 100 100 75 100 71 43 90 100 79 66 62 61 53 72 61 52 74 86 94 90 78 59 43 51 39 51
4 7 13 20 26 46 55 53 85 94 100 100 100 100 100 100 100 100 100 100 100 100 100 81 44 54 54 55 54 83 89 93 56 70 96 100 100 100 91 78 64 54 68 84 100
2 4 9 12 14 24 46 45 74 87 100 100 100 100 100 100 100 100 100 100 100 100 100 100 89 79 49 87 100 88 100 98 94 100 74 56 72 95 100 97 53 56 64 52 66
2 3 5 10 15 22 34 38 56 78 100 100 98 100 100 100 100 100 100 100 100 100 100 100 100 100 100 100 100 90 76 98 94 100 100 79 65 35 87 79 45 64 71 77 70
2 2 4 8 12 16 26 36 48 54 72 91 100 100 100 100 100 100 100 100 100 100 100 100 100 100 100 100 100 95 90 100 98 82 100 96 80 95 93 97 100 68 100 100 92

GFSSW_250_rhum_216.txt.gz
RH
100 100 85 100 100 100 100 99 100 100 100 100 99 100 100 100 99 86 65 69 64 69 67 100 99 61 71 65 54 68 92 85 45 58 31 31 29 30 23 18 17 20 15 86 82
100 100 100 100 100 100 100 100 99 100 100 100 100 100 98 100 78 74 99 84 79 59 68 100 96 82 76 100 100 68 59 76 57 65 46 41 38 30 25 24 21 24 21 18 20
100 99 94 92 100 95 100 100 92 100 100 100 100 100 100 100 81 94 98 83 73 62 96 100 100 76 100 100 100 99 95 52 58 72 70 48 47 42 32 28 27 23 24 20 24
96 100 98 89 95 93 87 99 96 100 100 100 100 100 100 100 100 100 100 100 75 92 68 83 93 87 100 100 82 78 96 61 58 65 71 47 54 58 43 34 30 28 23 22 18
70 82 100 100 98 81 85 85 92 100 100 100 100 100 100 100 100 99 100 100 91 100 100 89 100 95 85 93 100 98 68 62 48 80 91 85 65 61 52 39 35 39 26 27 25
63 71 90 92 93 86 100 100 100 94 100 100 100 87 87 84 100 100 100 100 96 80 100 97 89 80 91 77 95 100 87 100 100 86 90 100 73 53 55 47 47 42 40 31 30
70 72 74 64 88 99 100 100 100 100 100 100 100 100 70 85 100 100 100 100 100 100 100 100 83 96 90 90 67 91 100 100 100 100 99 100 70 82 70 62 45 50 41 40 37
92 70 72 76 96 86 80 93 82 89 100 100 100 100 80 80 89 100 100 100 100 100 100 100 93 67 71 65 66 73 100 100 100 100 65 98 100 100 95 98 98 59 50 35 49
40 99 72 83 79 89 96 90 88 83 68 100 100 100 100 100 85 100 100 100 100 98 100 100 100 100 56 69 86 99 63 70 94 83 54 63 100 100 100 78 70 73 72 63 56
57 48 94 63 94 74 100 100 100 76 66 100 88 79 100 100 100 100 100 100 100 99 98 100 100 100 98 100 100 73 49 46 63 100 94 72 100 100 99 100 98 100 56 88 67
100 66 60 56 84 79 97 100 100 64 99 73 67 82 84 90 100 100 77 82 100 93 100 100 100 95 100 91 68 65 50 54 62 70 69 98 100 100 100 100 100 64 70 57 81
100 100 95 83 87 90 89 100 98 92 92 99 75 66 74 61 74 90 100 81 100 99 100 98 100 100 100 91 75 56 46 56 72 74 72 79 61 75 72 60 100 100 100 100 57
100 100 100 97 99 88 81 96 92 100 100 65 86 92 88 88 55 53 79 46 81 96 94 100 100 100 100 100 88 72 59 70 69 93 97 98 89 93 87 76 100 100 77 63 76
100 100 100 100 99 100 95 100 100 100 100 98 56 99 100 91 60 63 100 82 59 50 100 100 100 100 100 100 75 59 67 64 54 83 96 75 61 75 68 60 98 100 100 51 66
100 100 100 100 100 99 100 100 100 100 100 100 81 81 100 72 100 100 100 100 85 62 57 85 100 100 100 100 71 64 63 55 59 75 79 74 31 73 46 47 85 100 96 60 80
83 100 100 100 100 100 89 100 100 100 100 100 95 97 100 100 62 79 79 99 94 85 66 70 99 100 100 100 100 100 64 70 69 68 58 95 44 42 46 52 64 81 62 98 100
26 42 79 100 88 100 100 100 100 100 100 100 99 77 100 100 82 100 90 100 66 68 63 66 83 100 100 100 100 87 86 61 89 92 93 100 60 61 51 39 57 46 100 100 83
16 17 29 39 51 66 94 100 100 100 100 100 91 98 100 99 98 100 100 63 77 70 84 62 65 100 100 100 100 100 88 56 71 69 92 88 68 75 51 40 35 34 68 85 65
12 13 14 20 39 61 73 100 100 100 98 96 93 83 100 100 79 100 94 82 100 94 68 64 67 88 100 100 100 100 72 82 65 49 56 88 74 51 51 63 35 35 46 62 84
8 10 11 20 38 56 94 100 100 98 98 93 100 100 91 98 84 76 80 96 91 91 90 100 95 66 100 98 91 98 100 92 100 96 71 98 100 100 100 84 59 100 100 100 100
4 6 10 13 25 50 30 20 99 100 100 95 100 100 100 100 95 84 85 100 100 99 91 100 100 100 100 63 69 99 100 100 100 94 100 100 100 100 100 100 100 100 100 100 100
2 3 8 11 12 16 12 11 39 100 100 100 100 100 100 100 100 100 93 100 98 96 83 100 100 100 100 100 98 83 100 100 89 83 82 91 100 100 92 100 100 95 100 94 66
2 2 4 6 7 10 12 15 22 86 100 96 100 100 100 100 100 100 100 100 100 84 93 100 100 100 88 87 100 100 100 100 80 83 79 69 88 99 100 100 93 83 82 72 69
2 2 2 2 4 7 10 11 13 35 98 100 100 100 100 100 100 100 100 100 100 99 100 100 100 100 77 85 79 89 100 90 91 76 74 87 94 98 95 100 100 98 88 88 56
1 2 3 2 3 6 10 12 11 18 42 100 100 100 100 95 100 100 100 100 100 100 100 95 100 100 100 100 100 91 100 84 30 70 60 82 86 85 79 78 67 82 96 70 43
3 4 3 3 3 3 5 8 13 20 22 49 95 100 100 52 98 100 100 100 100 100 100 100 89 100 100 92 100 100 100 92 86 72 37 51 86 90 73 66 60 48 40 59 47
3 3 3 2 2 2 3 4 8 16 26 30 79 100 100 95 100 100 100 100 100 100 100 100 93 95 100 100 100 100 100 94 85 79 48 40 50 47 61 80 65 51 39 42 33

GFSSW_250_rhum_222.txt.gz
RH
84 98 100 100 100 100 100 100 100 94 98 86 81 80 91 100 100 100 96 100 100 100 86 66 56 100 100 98 84 52 44 48 36 37 95 84 62 51 64 39 25 24 24 26 30
86 85 100 100 100 100 100 99 91 87 88 94 88 83 65 91 100 100 97 100 98 100 100 100 100 100 100 100 80 53 46 51 49 49 67 89 84 56 48 42 40 22 20 22 30
74 74 98 99 96 100 100 91 69 86 94 87 90 99 84 100 100 95 100 100 100 100 100 100 100 100 100 98 82 50 50 77 83 56 96 100 88 72 50 43 36 34 25 21 26
76 69 71 88 89 89 95 83 72 77 97 100 100 100 97 99 100 98 100 100 100 97 80 85 100 100 100 89 81 57 57 80 78 62 100 100 99 73 64 54 56 42 72 24 23
76 63 58 80 86 77 78 79 70 81 83 94 96 100 100 90 100 100 100 100 100 100 100 90 98 100 94 87 72 97 72 80 73 58 98 89 92 66 89 80 45 53 81 60 54
64 66 66 83 71 73 73 80 89 77 95 81 100 98 96 82 100 79 97 100 100 100 100 100 100 100 95 95 92 100 77 64 63 66 74 61 64 62 95 96 84 79 92 99 100
77 79 73 97 74 72 66 100 100 77 88 80 88 100 100 100 100 100 100 100 100 100 100 100 100 100 100 100 100 100 75 51 90 100 83 56 58 66 60 68 88 62 41 67 100
80 82 71 75 72 83 62 85 100 68 82 73 88 100 93 100 100 100 100 100 100 100 100 100 100 100 100 100 100 100 69 67 100 95 66 48 59 87 74 95 100 73 62 41 97
100 100 99 81 83 82 72 71 76 77 75 86 76 87 87 100 100 100 100 100 100 100 100 90 84 99 100 100 100 100 76 64 95 78 96 58 38 80 74 96 99 87 78 62 46
100 90 100 77 80 71 73 70 65 78 61 94 92 100 91 100 100 100 100 100 100 100 100 98 80 92 80 96 100 100 94 72 55 68 66 94 45 47 41 54 71 66 64 80 69
100 100 82 100 87 92 76 57 66 94 58 97 100 100 100 82 84 100 100 100 100 100 100 100 79 68 74 98 100 100 100 85 64 58 70 100 66 43 52 39 52 76 46 76 74
84 98 100 100 100 99 80 76 61 82 74 75 92 100 100 86 77 98 100 99 94 99 100 100 63 51 86 90 90 93 100 100 80 100 100 91 74 52 59 45 42 54 48 58 76
100 97 97 96 80 100 96 94 92 73 85 59 95 100 100 100 90 82 100 100 100 100 100 100 98 80 57 73 73 90 100 100 100 100 100 100 87 68 72 76 41 60 52 55 99
100 96 100 100 86 100 100 100 97 77 93 75 69 65 100 95 62 57 93 100 100 94 100 100 100 100 97 92 98 100 100 100 100 100 100 98 79 56 49 74 90 74 44 48 78
100 100 100 100 100 100 93 100 100 91 96 76 68 79 62 67 90 51 72 100 100 100 98 100 100 100 100 100 100 98 100 100 100 100 100 100 80 100 99 96 74 54 32 35 46
79 100 100 100 100 100 100 98 100 100 84 61 91 69 65 72 96 67 52 80 100 100 100 99 96 100 100 100 100 99 97 97 82 98 97 100 100 100 100 86 52 43 37 34 47
17 50 82 100 93 100 100 100 100 100 92 65 62 89 83 91 80 100 66 63 75 100 100 100 76 79 100 100 100 100 98 96 89 89 88 96 85 81 50 40 51 55 55 46 40
8 11 20 64 93 99 100 100 100 86 82 98 99 98 100 99 99 82 100 66 58 98 98 100 75 63 62 100 100 100 100 97 94 89 79 64 42 64 99 87 75 78 66 60 55
6 6 11 16 50 95 100 100 100 88 90 98 86 65 100 99 100 88 68 71 57 88 100 100 100 100 94 83 100 100 90 98 100 87 64 57 38 49 100 100 100 90 86 67 64
6 6 7 11 18 40 77 80 100 100 100 100 99 77 67 97 100 82 62 52 68 64 98 100 100 90 100 100 75 84 100 87 71 84 98 64 55 38 38 48 99 100 95 89 74
4 5 10 9 9 11 14 44 71 100 100 100 100 100 100 86 94 100 91 74 73 93 97 100 100 100 100 100 100 100 86 75 67 66 47 58 75 64 60 51 48 43 33 65 100
3 5 6 6 6 6 6 11 34 52 70 100 100 100 100 100 100 100 95 89 84 88 100 99 100 100 100 100 100 100 100 100 72 41 48 46 41 36 38 48 73 57 31 65 100
3 4 4 4 3 4 6 8 10 10 21 48 76 100 100 100 100 100 100 100 100 100 63 82 89 78 100 100 100 100 100 100 71 100 60 55 43 50 60 66 70 72 59 86 100
3 3 3 3 3 2 3 5 7 9 10 12 23 44 77 100 100 100 100 100 100 100 100 100 98 81 73 100 100 100 100 100 100 93 100 96 71 62 61 78 80 90 100 43 32
3 3 3 3 4 4 3 4 4 5 8 11 9 12 25 38 55 100 100 100 100 100 100 100 100 100 98 100 100 100 100 100 100 100 100 97 99 100 94 100 100 100 100 90 88
6 6 7 12 8 5 4 3 4 5 5 6 8 10 12 14 18 36 89 100 100 100 100 100 100 100 100 92 98 100 79 96 100 100 100 100 100 100 88 100 100 100 93 84 73
13 8 6 13 11 4 9 6 4 5 4 4 4 7 8 11 20 34 47 92 100 98 100 100 100 100 100 100 100 100 98 79 93 95 92 100 100 100 97 80 90 100 87 81 97

GFSSW_250_rhum_228.txt.gz
RH
100 100 100 100 100 100 100 100 100 100 100 100 100 99 97 100 89 91 100 100 100 98 65 68 82 71 59 60 83 95 100 70 76 63 40 73 75 71 40 33 49 49 78 58 48
100 100 100 100 100 100 100 100 100 100 100 100 100 100 100 100 100 100 99 99 100 98 99 93 92 83 79 76 86 82 96 72 83 72 45 58 68 63 49 35 32 64 73 67 62
100 100 100 100 100 100 100 100 100 100 100 100 100 100 100 100 100 100 100 100 100 100 88 78 96 90 88 95 82 84 86 82 82 56 50 58 61 66 55 40 32 50 70 79 67
97 100 100 100 100 100 100 100 100 96 98 100 100 100 100 100 100 100 95 100 100 100 100 98 93 95 92 80 92 86 96 85 58 59 100 93 87 72 62 44 34 52 71 94 67
100 100 100 100 100 100 100 100 100 100 100 99 96 100 97 100 100 100 100 100 100 100 100 100 94 90 96 86 90 91 100 100 98 81 74 78 79 61 64 53 36 54 72 79 78
100 100 100 97 100 100 100 100 100 100 100 100 100 98 89 78 100 94 100 100 100 100 100 100 100 83 99 85 89 92 100 95 100 99 100 98 100 77 76 50 43 57 70 70 84
77 93 98 100 100 100 100 100 100 100 100 100 100 100 99 100 100 100 100 100 100 100 100 100 90 89 97 96 79 95 100 95 95 86 97 100 100 99 73 55 46 55 54 59 70
61 65 77 97 96 100 100 100 100 100 100 100 100 98 100 100 100 100 100 100 100 100 96 99 97 64 77 100 88 84 87 95 100 100 100 99 100 100 76 55 47 48 73 56 57
52 55 74 72 77 97 100 100 100 100 100 100 100 94 79 100 100 100 100 100 100 100 100 87 89 83 77 98 100 85 62 100 100 100 96 88 90 100 78 64 51 42 73 55 59
18 39 65 69 85 75 87 100 100 100 100 100 100 85 71 89 100 100 100 100 100 98 94 91 98 88 77 62 80 100 100 100 100 100 93 93 71 97 96 80 72 50 48 52 47
10 19 41 78 69 83 71 97 100 100 100 100 100 100 85 100 100 100 100 100 97 83 82 89 71 80 99 92 99 100 99 92 97 100 99 96 70 85 100 92 92 78 49 42 46
10 11 15 65 80 90 93 89 96 100 100 100 100 100 100 100 100 100 100 99 95 92 86 70 51 100 100 99 84 90 98 76 71 100 88 86 82 90 99 100 93 74 56 45 46
6 10 12 14 45 100 100 100 94 98 100 100 100 100 100 100 100 100 100 100 100 100 100 82 84 90 86 89 82 96 87 76 69 100 74 77 66 75 96 92 90 78 78 53 37
5 6 10 12 15 46 100 100 100 97 97 98 96 94 100 100 100 98 100 100 100 100 95 71 91 100 78 90 99 93 100 100 100 94 86 83 52 69 85 68 84 91 77 48 49
5 6 6 9 13 21 54 100 100 100 100 95 99 95 100 100 100 97 100 100 100 100 100 78 93 100 96 100 100 100 100 100 100 59 51 70 45 76 77 71 95 95 81 65 75
4 5 6 6 10 15 18 57 100 100 100 95 89 96 88 100 100 100 97 100 100 100 100 85 82 80 79 91 86 100 100 100 93 70 28 71 59 74 100 100 90 62 70 73 86
4 4 6 7 7 10 16 17 70 94 80 100 100 99 84 100 100 91 98 100 100 100 94 100 92 65 76 97 99 100 100 100 100 100 58 60 96 49 99 100 100 70 74 92 91
4 3 4 6 6 8 12 17 14 20 62 93 100 100 97 79 88 100 100 100 100 91 90 95 94 82 97 90 100 100 100 100 100 100 96 78 45 66 100 98 85 92 98 100 98
6 4 4 4 6 7 8 12 12 14 32 89 96 100 100 100 99 96 100 100 100 100 100 99 87 100 100 100 100 100 100 100 100 100 100 85 66 98 99 89 98 100 98 64 81
6 4 4 3 3 5 6 6 12 15 19 29 59 91 100 100 100 100 97 96 100 100 100 100 90 96 100 100 99 100 100 100 100 100 100 92 86 90 100 100 100 100 100 100 100
6 5 5 4 4 3 4 7 9 11 16 20 42 64 100 100 100 100 100 100 100 100 100 100 99 95 100 96 100 100 100 100 100 100 100 79 89 100 100 100 100 100 100 100 98
5 5 4 3 3 4 5 6 8 10 10 12 18 38 56 99 100 100 100 100 100 100 100 100 100 100 82 100 100 100 100 100 100 91 83 80 74 100 100 100 100 100 98 87 92
5 5 4 3 3 5 6 6 5 8 11 12 12 17 51 70 73 100 100 100 100 100 100 100 100 78 86 79 95 98 100 100 100 100 98 88 40 90 99 90 99 100 100 100 100
5 5 4 4 5 5 6 6 6 7 8 10 11 11 15 24 73 99 100 100 100 100 100 100 100 100 88 69 73 100 100 100 100 100 90 94 79 53 94 92 97 100 100 100 100
5 5 4 5 6 4 4 5 6 7 8 8 10 13 13 15 38 73 100 100 100 100 100 100 100 100 98 78 88 78 88 100 100 100 100 80 80 98 60 92 89 100 100 100 100
7 7 5 5 5 5 7 12 9 8 6 6 5 9 11 12 14 35 86 100 100 100 100 100 100 100 85 75 85 87 70 87 100 100 100 72 71 100 93 42 65 100 99 95 100
7 8 10 10 9 13 13 10 10 8 5 5 4 6 5 10 14 14 11 37 91 100 100 100 100 100 100 93 75 91 69 78 79 70 99 100 79 100 97 100 94 99 100 100 100

GFSSW_250_rhum_234.txt.gz
RH
83 80 99 100 100 100 100 100 100 100 100 100 100 100 100 100 100 100 100 92 100 100 100 95 92 100 88 98 100 100 100 90 72 54 43 44 46 47 49 69 53 41 37 33 34
33 45 57 93 100 100 100 100 100 100 100 100 100 100 100 100 100 100 100 100 100 100 100 100 100 98 100 100 100 100 100 81 65 53 43 46 47 49 58 75 69 51 43 35 36
13 16 43 51 83 100 100 100 100 100 100 100 100 100 100 100 100 100 100 100 100 100 100 100 99 98 87 87 94 85 100 87 88 95 56 58 50 42 59 92 74 67 51 41 33
11 10 12 22 51 73 100 100 100 100 100 100 100 100 100 100 100 100 100 100 100 100 100 100 99 100 100 100 100 94 90 78 98 93 86 59 54 51 48 73 96 81 57 46 38
8 8 8 10 12 32 73 97 99 100 100 100 100 100 99 100 100 100 100 100 100 100 100 100 100 100 100 100 95 100 90 85 96 100 91 67 56 56 50 67 85 100 76 57 70
7 7 7 7 8 10 24 74 86 100 100 100 100 100 100 100 100 100 100 100 100 100 100 100 100 100 100 100 99 98 96 94 100 100 100 84 54 54 60 58 85 87 88 99 95
5 6 6 6 6 7 10 23 65 81 100 100 100 100 88 99 100 100 100 100 100 100 100 100 100 89 78 98 100 99 100 100 91 100 100 74 59 74 54 65 97 100 100 100 100
5 5 5 6 5 6 7 10 28 71 99 100 100 100 100 94 100 100 100 100 99 100 100 100 100 100 100 87 89 79 78 99 97 78 70 75 79 83 56 50 92 100 100 100 100
5 6 5 5 6 6 6 7 10 39 90 100 100 100 100 100 100 100 100 100 92 96 100 100 100 100 100 100 77 98 78 73 83 96 100 98 98 95 49 48 50 64 86 98 100
6 6 5 6 5 6 6 6 7 11 44 63 98 100 100 100 100 100 100 100 100 86 96 94 91 100 100 100 100 100 96 100 100 100 100 100 95 87 59 42 42 46 72 99 97
8 7 6 6 6 5 5 6 6 8 13 31 68 96 93 100 100 100 100 100 100 100 89 95 100 94 100 100 100 100 97 100 97 100 91 99 98 92 72 44 37 44 63 82 81
9 8 7 7 6 6 6 6 7 7 8 15 23 66 100 89 100 100 100 100 100 100 100 88 73 98 100 82 79 91 100 100 100 97 81 87 59 74 64 47 47 47 51 72 82
9 8 8 8 7 7 6 6 7 7 7 9 18 79 100 100 100 100 100 100 100 100 100 99 93 100 100 86 78 90 99 100 98 89 94 55 45 54 61 56 50 61 62 59 74
9 8 7 7 7 7 7 7 7 7 7 8 15 66 100 100 100 100 100 100 100 100 100 100 100 100 98 78 84 66 83 90 82 84 77 81 44 59 90 56 57 85 97 89 81
9 7 7 7 7 6 6 6 7 8 8 8 11 37 99 100 100 100 100 100 100 100 100 100 100 100 97 98 100 100 100 100 100 100 100 81 66 65 90 59 65 98 100 93 72
9 7 8 8 7 6 5 5 5 6 9 9 10 17 58 100 100 100 100 100 100 100 100 100 100 100 100 100 100 100 100 100 100 100 76 69 58 46 93 54 70 84 100 94 58
9 8 9 8 7 6 5 5 5 6 7 10 11 12 25 90 100 100 100 100 100 100 100 100 100 100 100 100 100 100 100 100 100 100 60 100 80 48 90 80 88 76 96 64 54
10 8 9 9 7 6 5 6 6 6 6 7 11 12 19 60 100 100 100 100 100 100 100 100 100 100 100 100 100 100 100 100 100 100 100 100 78 71 86 91 59 64 100 92 81
11 8 9 9 7 6 6 7 6 6 6 7 8 13 14 37 95 100 100 100 100 100 100 100 100 100 100 100 100 100 100 100 100 99 100 100 98 88 70 58 68 67 92 100 100
12 9 10 9 7 7 7 7 6 6 6 6 8 10 15 17 45 94 100 100 100 100 100 100 100 100 100 100 100 100 100 100 100 100 99 87 96 85 73 60 82 95 61 100 96
12 9 12 9 8 8 8 6 6 5 6 6 7 8 12 16 18 52 100 100 100 100 100 100 100 100 100 100 100 100 90 100 100 100 100 94 93 90 61 62 89 87 74 66 66
12 10 14 10 9 9 7 6 6 6 6 6 7 8 8 14 16 24 100 100 100 100 100 100 100 100 100 100 100 94 93 100 100 97 95 94 93 100 97 65 67 77 75 74 54
12 10 15 13 10 9 7 5 6 6 6 6 6 7 8 10 16 16 56 100 100 100 100 100 100 100 100 100 96 100 97 100 100 100 90 87 67 99 82 52 46 72 96 100 100
15 15 15 13 12 9 8 5 5 5 6 6 6 6 8 9 12 21 37 87 100 100 100 100 100 100 100 100 100 100 83 97 100 100 98 78 98 68 100 97 69 94 100 100 100
15 18 21 13 12 10 8 5 4 4 6 7 6 5 6 10 10 16 21 32 80 100 100 100 100 100 100 100 100 100 96 84 76 77 95 64 73 91 71 80 100 100 100 100 100
16 18 22 18 13 10 9 5 4 4 4 5 6 5 6 7 9 11 13 20 31 75 100 100 100 100 100 100 100 100 90 94 90 78 59 66 75 100 100 71 66 100 85 99 100
14 17 31 16 14 12 9 6 6 6 5 4 7 6 5 5 6 9 12 14 21 22 81 100 100 100 100 100 100 100 100 100 100 99 73 60 86 100 86 76 60 74 100 96 100

GFSSW_250_rhum_240.txt.gz
RH
30 46 62 66 74 89 94 83 88 94 100 100 100 100 100 98 100 100 100 100 100 91 98 100 100 100 90 74 80 100 98 79 99 100 80 100 100 90 100 97 75 37 31 32 31
19 17 16 17 20 19 40 56 60 56 71 100 100 100 100 100 90 98 100 100 100 100 100 87 100 100 100 100 99 98 91 88 100 73 59 100 100 100 100 100 83 42 38 34 32
16 13 14 17 15 16 15 14 18 19 31 67 100 100 100 98 100 100 100 100 99 100 100 100 100 100 100 100 100 100 100 88 92 93 62 81 100 100 100 100 90 42 57 45 38
10 10 10 9 10 12 15 13 13 13 15 26 74 100 100 100 100 99 100 100 100 89 79 100 100 100 100 100 100 100 100 100 88 95 91 83 100 100 100 100 100 51 71 58 42
12 11 10 10 9 9 9 10 11 12 11 12 25 68 100 100 100 98 93 100 100 89 100 100 100 100 100 100 100 100 100 100 97 96 96 83 100 100 90 93 88 87 91 64 66
12 11 10 10 8 9 8 8 8 9 9 9 11 16 52 63 100 100 95 100 100 100 94 86 98 100 100 100 97 100 100 100 100 100 97 93 89 100 100 97 100 100 93 80 83
14 13 11 10 10 10 9 8 8 8 8 7 7 9 11 29 69 100 100 97 100 100 100 100 92 94 100 100 100 100 100 100 90 100 100 100 100 78 100 100 100 100 86 53 98
16 15 13 12 10 11 12 12 8 7 6 7 6 6 8 12 36 96 100 100 100 98 100 100 100 79 87 100 100 97 100 100 100 100 100 98 100 100 100 100 100 95 80 78 100
18 18 19 16 12 12 13 13 10 6 6 6 6 5 6 9 14 60 98 100 100 100 98 92 100 96 91 99 100 82 82 100 100 100 100 100 97 95 100 100 100 99 100 100 100
21 21 19 19 16 15 14 12 11 6 6 6 6 5 6 7 9 16 51 100 100 100 100 100 85 94 100 75 69 89 91 100 100 99 100 100 100 100 100 100 100 100 100 91 72
22 21 20 18 16 13 12 11 10 7 7 7 6 5 6 6 6 10 25 67 100 100 100 100 100 85 74 90 90 100 90 83 95 100 100 100 99 100 100 100 100 82 60 72 58
22 21 20 16 14 14 10 10 9 8 8 7 7 6 5 6 6 8 11 33 98 100 100 100 100 100 99 100 99 100 95 91 94 100 100 100 97 100 100 100 100 100 74 50 44
20 19 17 14 13 12 10 9 8 7 8 8 6 6 6 5 7 8 9 13 32 98 100 100 100 100 100 100 100 91 100 95 74 94 100 100 100 100 100 100 100 100 100 100 100
19 16 13 13 12 12 9 9 9 8 8 9 6 7 7 6 7 8 8 10 18 21 96 100 100 100 100 98 88 74 94 100 100 100 100 100 100 100 100 98 88 92 100 100 100
15 14 14 15 14 12 10 9 9 8 8 8 7 7 7 7 7 9 8 10 13 16 24 83 100 100 100 96 100 72 100 100 100 100 100 100 100 91 100 99 100 100 100 100 100
14 15 14 12 12 11 10 10 9 8 8 8 7 6 7 7 7 9 9 10 11 14 16 29 90 100 100 100 100 100 100 100 100 100 100 98 100 72 88 92 100 100 100 91 100
14 15 15 15 11 13 12 11 9 8 7 7 7 7 6 7 8 8 9 10 11 13 27 14 36 100 100 100 100 100 100 100 100 90 79 56 93 80 86 87 87 85 80 83 89
16 14 15 19 17 15 13 10 9 8 7 7 7 7 8 8 8 9 11 10 11 12 18 22 13 66 100 100 100 100 100 100 71 60 61 72 76 68 96 100 75 80 63 62 60
16 14 16 23 17 16 13 9 8 8 7 7 7 7 7 8 8 8 9 10 10 14 15 26 11 16 70 100 100 100 100 100 100 100 100 100 100 98 100 92 66 63 68 63 53
17 14 16 21 18 16 11 9 8 8 7 8 8 8 8 8 8 7 7 9 9 15 20 15 13 12 26 88 100 100 100 100 100 100 100 100 84 56 67 69 81 67 58 68 74
17 15 17 20 17 14 11 9 8 8 8 8 8 9 9 8 8 9 8 9 9 10 16 13 14 23 15 36 100 100 100 100 100 100 100 100 100 72 100 100 100 100 100 89 76
19 16 17 18 16 13 11 9 8 8 9 9 9 9 9 9 9 9 10 11 10 10 12 22 15 35 41 44 49 100 100 100 100 100 100 100 100 100 100 100 100 100 75 69 69
19 20 16 16 16 10 10 9 9 9 10 10 10 9 8 8 9 11 10 12 12 10 10 29 45 30 75 100 88 65 100 100 100 100 100 100 100 100 100 100 100 100 97 76 70
17 21 17 13 13 13 11 10 10 10 11 12 10 9 8 8 8 9 11 12 11 12 11 16 25 41 71 99 100 90 61 100 100 100 100 100 100 100 100 99 100 98 100 100 100
16 20 18 13 10 10 11 13 12 10 12 11 11 9 9 9 8 8 8 10 12 12 13 14 24 71 63 100 100 100 94 71 80 99 100 100 100 100 100 100 100 99 97 89 89
16 19 17 12 11 8 13 18 14 11 11 13 13 9 9 9 8 8 7 7 10 12 13 14 16 89 100 100 100 100 94 100 90 70 79 100 100 100 100 100 100 100 94 82 81
15 18 18 11 9 10 14 12 13 14 14 15 12 10 10 8 7 8 8 7 7 9 13 14 16 26 100 100 100 100 100 100 100 100 100 88 94 100 100 100 100 97 85 97 94

GFSSW_250_rhum_243.txt.gz
RH
75 96 86 89 96 99 100 100 100 100 95 100 100 100 100 100 100 95 80 91 92 95 100 100 100 100 94 100 100 100 99 97 100 100 100 100 97 100 100 100 88 95 100 95 63
57 80 83 69 67 77 88 78 92 99 100 97 100 100 100 100 100 100 100 81 66 75 92 100 100 100 98 86 100 91 92 100 100 100 100 100 85 94 100 93 100 100 98 100 79
30 26 24 22 29 34 48 60 64 70 76 78 87 95 100 100 100 100 100 100 91 69 63 100 100 100 100 96 93 99 84 100 100 100 100 100 98 99 79 66 100 100 100 100 87
18 18 17 16 16 16 14 15 14 14 17 31 52 70 80 92 99 100 100 100 100 89 68 85 93 100 100 100 100 73 100 100 100 92 100 100 98 100 92 73 98 99 100 100 89
15 14 13 13 12 12 13 13 13 14 12 12 13 24 46 62 74 82 100 100 100 100 90 73 90 90 93 100 100 96 100 100 100 100 95 100 94 81 83 99 100 98 94 100 100
17 16 14 12 12 11 11 10 10 10 11 11 10 11 12 12 26 46 48 81 100 100 100 86 73 97 88 98 100 100 100 100 100 100 99 100 95 94 100 100 98 76 80 100 100
18 16 15 13 12 10 10 9 9 9 9 9 10 10 9 10 10 11 16 34 64 94 100 100 92 77 80 94 94 100 95 100 100 100 91 100 100 82 100 100 100 94 100 100 100
22 20 17 15 14 13 12 10 8 8 8 8 8 8 9 9 7 8 10 11 19 41 97 100 100 90 73 79 98 100 100 100 91 100 100 100 98 100 100 100 92 97 84 92 100
20 19 18 17 16 14 14 14 12 9 8 7 7 7 8 8 7 6 7 10 11 27 59 100 100 99 100 75 86 88 70 80 100 100 100 99 100 100 100 100 100 100 93 100 100
32 30 26 20 16 14 13 12 12 9 8 8 6 6 7 7 6 5 6 7 10 11 36 87 100 100 100 87 71 61 68 96 100 100 94 98 82 100 100 100 100 100 100 94 87
33 29 25 19 15 13 11 11 10 10 10 9 7 6 6 6 5 6 5 6 7 9 15 55 100 100 90 97 80 100 100 76 77 100 100 86 91 100 100 100 100 100 100 100 100
32 25 20 14 14 12 11 11 10 10 11 10 8 7 8 5 6 7 5 6 6 7 10 24 74 100 100 100 100 84 100 90 84 94 100 87 100 100 75 100 100 100 100 100 98
32 22 14 15 14 10 10 10 9 8 10 12 7 9 8 7 7 8 6 6 6 6 7 11 27 92 100 100 100 100 73 87 73 100 100 100 89 100 100 100 100 100 94 100 100
32 19 14 16 12 11 10 10 10 9 11 10 9 7 8 7 8 9 7 6 6 7 7 8 12 32 100 100 100 100 88 86 92 100 100 98 87 100 100 100 100 100 99 93 99
29 18 14 15 12 12 11 10 8 8 9 9 10 9 8 8 8 8 8 7 6 7 8 8 10 16 45 88 100 100 100 100 100 100 100 100 100 81 90 99 99 100 100 100 99
29 17 15 15 12 13 12 10 8 8 10 10 11 10 9 8 10 10 9 8 7 7 8 7 9 13 26 60 100 100 100 100 100 100 100 99 100 56 63 77 100 100 100 100 100
32 18 15 16 14 12 12 9 10 10 10 12 12 12 9 8 9 10 8 8 8 7 8 8 9 10 13 31 87 100 100 100 100 100 100 74 80 38 55 84 100 100 100 100 100
32 18 16 16 13 14 12 10 13 13 12 14 12 10 9 8 8 9 8 8 8 7 8 8 9 9 10 15 31 82 100 100 100 100 90 77 85 33 51 93 100 100 100 100 100
31 18 16 16 12 13 12 10 16 14 12 12 10 9 8 8 7 8 9 8 8 8 8 8 9 10 10 11 24 78 100 100 100 100 100 100 82 56 73 56 70 94 100 100 100
32 17 17 14 13 13 12 14 15 13 11 10 10 10 7 7 7 7 8 8 8 8 8 8 9 9 11 10 12 38 98 100 100 100 100 94 88 69 83 74 90 94 88 100 97
30 17 16 15 11 13 12 14 14 12 10 10 9 10 8 7 7 8 8 8 8 9 10 8 9 11 11 11 12 14 40 96 100 100 100 94 82 98 100 100 100 100 100 84 86
29 17 16 15 12 13 11 13 14 11 10 9 9 10 10 7 7 8 7 7 7 8 10 11 11 12 13 11 14 13 13 53 100 100 100 100 81 100 100 100 100 99 100 100 78
25 19 15 14 13 11 12 13 15 12 10 10 10 10 11 8 8 8 8 8 7 8 9 12 12 14 22 13 37 22 17 15 28 69 90 100 100 100 100 100 85 65 72 62 46
22 18 16 13 12 11 13 14 14 11 10 11 10 11 12 11 8 8 8 8 8 8 9 11 14 15 16 19 24 23 24 24 16 32 68 100 100 100 93 94 100 96 88 67 54
21 18 17 14 11 11 12 18 13 10 11 10 12 12 13 13 10 8 8 9 10 8 9 10 13 16 15 34 16 20 20 18 18 14 33 100 100 100 98 90 100 100 100 100 100
21 17 17 14 13 11 12 14 15 12 12 11 12 10 12 14 10 8 8 8 9 10 8 10 12 16 21 24 28 21 20 12 19 20 19 41 97 100 97 87 100 100 91 100 100
20 17 16 15 13 12 13 12 12 15 13 14 12 12 10 11 12 9 9 8 9 10 12 10 13 13 19 27 38 41 24 20 23 62 93 61 82 100 96 100 96 100 96 100 90

GFSSW_250_rhum_246.txt.gz
RH
29 32 29 41 36 43 63 99 97 100 100 100 100 100 100 100 100 100 100 100 95 72 92 98 99 98 100 98 100 100 100 98 100 100 100 94 92 100 100 100 100 100 100 88 92
43 46 42 37 35 34 40 61 83 90 100 99 100 100 100 100 100 100 100 100 80 98 95 87 93 100 96 100 94 89 98 100 100 100 100 95 88 99 100 81 78 100 100 91 100
27 26 23 23 23 28 37 42 59 76 80 80 95 100 100 100 100 100 100 100 100 85 96 85 78 72 96 100 90 96 92 100 100 100 100 100 92 98 100 95 90 100 95 87 100
23 23 23 22 22 22 22 28 32 47 57 65 71 68 77 100 100 100 100 100 100 100 88 97 64 61 72 78 94 82 100 100 100 100 100 95 97 100 100 100 99 85 80 100 100
25 23 21 20 19 18 16 16 15 15 16 18 23 34 56 72 86 84 82 93 100 100 100 100 84 57 52 66 65 70 100 100 100 100 100 96 93 100 100 100 84 98 98 91 100
23 21 18 17 16 16 15 15 15 14 13 14 13 14 14 25 55 59 70 82 65 80 100 100 99 61 60 49 47 58 86 100 100 100 100 99 88 68 100 100 93 94 99 100 100
22 19 17 16 14 13 12 12 12 11 12 12 11 12 11 14 12 20 36 48 73 85 70 100 100 100 64 60 47 56 63 87 82 100 100 100 80 69 100 100 100 92 80 100 100
22 19 18 18 19 19 19 18 14 11 9 9 10 10 9 11 10 10 10 11 24 42 55 71 81 100 96 97 83 68 65 56 84 96 100 94 100 100 100 100 100 100 100 100 100
31 30 33 30 30 26 23 20 16 12 10 8 8 8 9 10 9 8 8 8 9 9 12 27 51 76 100 99 100 94 39 50 67 98 98 63 91 100 100 100 100 100 98 100 100
39 43 40 32 28 26 21 16 12 10 9 8 8 7 7 8 8 8 7 7 7 7 8 11 15 39 65 95 96 77 58 37 59 78 100 86 63 100 100 100 100 100 100 100 100
51 46 42 34 28 22 16 12 9 9 10 8 7 8 8 6 6 7 7 6 7 7 6 7 10 10 21 44 62 100 100 97 74 89 79 80 74 96 100 100 100 100 100 100 97
50 48 44 34 31 23 16 12 11 11 12 6 7 9 9 8 9 7 7 6 6 7 6 6 6 8 9 12 30 55 76 86 100 99 78 76 94 88 100 100 100 100 100 100 100
58 52 50 35 33 25 17 12 11 9 8 8 7 7 8 9 8 8 9 7 7 7 7 6 5 7 7 10 11 19 36 46 77 100 100 70 78 96 79 98 100 100 88 100 100
62 52 43 36 32 25 16 12 10 9 9 8 9 8 7 6 9 8 8 9 9 8 6 5 6 6 7 7 9 12 20 53 74 100 100 80 58 83 98 85 94 100 100 99 86
56 48 41 34 31 23 15 11 10 10 10 10 10 8 7 7 7 8 8 9 10 8 6 6 7 7 6 7 7 8 12 21 44 99 100 100 77 60 88 92 75 100 100 100 100
53 44 41 28 26 21 15 12 10 10 11 8 12 11 7 7 7 8 8 8 9 10 6 7 7 7 6 8 8 9 12 13 39 83 100 100 100 46 55 48 65 100 100 100 100
52 48 33 27 22 18 15 13 10 11 11 10 12 10 8 8 7 8 8 9 8 8 8 8 8 8 8 9 8 8 12 14 27 72 100 100 100 39 41 52 58 74 100 100 100
46 43 32 25 22 17 15 13 11 11 11 12 14 11 9 11 9 9 9 8 8 8 9 8 9 10 9 9 9 8 12 12 22 61 83 100 100 54 54 89 74 65 90 100 100
43 44 32 24 21 17 15 14 12 11 11 13 13 13 10 11 12 10 10 10 10 8 8 8 11 11 11 8 9 10 11 12 22 28 48 89 100 100 98 74 92 79 78 87 100
46 40 34 23 21 17 15 14 12 11 12 12 15 11 10 9 10 10 9 9 10 8 8 8 11 12 13 10 8 9 10 16 17 20 61 69 94 96 83 80 100 96 95 100 100
45 37 33 22 20 18 15 14 13 11 12 13 13 12 9 8 9 8 8 7 8 8 7 9 11 11 14 12 9 9 10 12 14 18 55 42 43 100 100 100 100 100 96 84 88
53 38 32 22 21 18 15 14 14 11 10 11 12 10 9 8 7 8 8 7 7 8 7 8 10 12 16 16 13 10 10 13 16 14 17 17 20 100 100 100 100 100 88 75 73
51 37 33 22 21 18 16 14 13 10 9 11 11 10 9 8 9 8 8 7 7 8 8 9 10 10 15 17 17 13 11 13 15 15 17 25 26 100 100 100 100 96 87 99 100
38 34 33 21 20 18 16 14 11 10 10 12 11 10 10 8 8 8 8 9 7 7 8 8 10 10 14 17 16 12 11 13 15 15 14 15 34 67 96 100 97 76 82 99 81
30 31 35 21 19 17 16 14 13 11 10 12 10 11 10 10 8 10 8 10 10 8 8 8 10 11 13 16 15 14 9 10 13 13 14 16 16 26 29 70 92 79 96 99 93
28 29 34 20 19 17 14 13 12 12 11 9 12 9 11 12 11 11 11 9 10 9 8 8 9 12 12 15 14 16 14 11 14 14 17 16 19 21 11 35 73 100 100 100 100
23 27 32 20 18 17 14 14 12 12 9 12 11 11 11 12 12 12 11 10 9 10 9 9 9 13 12 12 13 20 20 17 18 20 23 42 37 12 15 29 66 87 99 89 100

GFSSW_250_rhum_252.txt.gz
RH
72 89 95 97 91 68 49 34 40 26 23 21 18 27 88 99 100 100 100 100 100 100 97 100 100 65 95 100 100 99 62 90 100 100 100 100 95 68 76 74 67 79 100 95 87
69 71 73 63 54 56 58 47 47 55 41 34 23 24 21 44 83 100 100 100 86 85 89 100 100 98 68 84 100 100 97 98 100 100 100 100 87 85 76 88 82 82 99 100 100
42 38 34 33 34 35 36 37 37 34 34 38 39 28 22 24 30 74 100 100 100 98 76 97 89 72 93 74 81 100 100 100 100 100 100 100 85 64 75 100 96 100 100 100 100
33 32 30 29 30 29 27 24 24 25 27 27 27 27 36 49 21 18 45 85 99 100 100 69 78 68 66 64 74 85 99 100 100 100 96 100 90 64 63 90 84 95 100 100 100
30 33 34 34 33 30 29 29 28 26 24 22 19 19 20 22 22 23 15 24 58 89 100 100 70 52 48 64 68 71 91 96 100 100 93 82 91 68 47 85 81 98 99 100 100
31 29 27 24 24 21 21 20 20 21 18 17 18 19 19 18 18 16 18 26 18 58 96 100 100 67 44 50 58 58 65 86 100 100 99 100 100 79 77 69 68 69 91 100 100
26 26 30 32 32 33 34 33 32 32 29 26 22 19 16 15 15 16 14 13 17 26 54 80 100 100 82 58 36 42 48 70 84 100 90 100 100 92 100 69 50 71 75 87 100
32 39 39 39 40 43 39 35 35 34 32 28 26 26 24 19 15 13 12 11 10 13 20 26 62 74 100 98 72 46 42 38 66 68 99 100 96 100 100 64 58 59 75 79 100
40 36 36 41 40 44 44 48 41 39 32 29 27 24 21 20 18 14 12 10 9 9 10 14 20 57 59 98 98 58 40 35 43 52 65 89 90 100 100 70 78 62 74 80 94
37 40 43 44 43 51 56 48 44 38 34 29 29 23 17 16 15 13 11 12 9 8 8 8 11 15 33 63 81 100 92 79 66 47 52 47 59 100 100 78 80 82 66 86 87
42 40 38 39 44 58 57 45 38 31 26 23 22 19 15 12 12 11 10 10 11 9 8 8 6 9 13 22 49 71 83 100 95 100 97 40 38 54 100 80 64 75 75 77 96
36 40 38 44 49 59 54 43 34 27 22 20 18 15 12 10 9 10 9 9 8 8 8 8 7 7 7 10 13 36 55 64 97 100 100 78 32 38 79 59 54 51 60 80 91
40 44 40 40 46 57 45 40 27 22 20 19 17 14 11 11 9 8 8 8 7 7 7 7 9 7 7 7 9 11 11 32 59 98 100 100 68 45 80 49 48 42 44 51 82
47 37 38 42 54 51 53 37 29 19 16 16 18 13 12 10 8 8 9 8 8 7 7 7 8 8 8 7 7 8 10 12 35 70 76 92 92 76 78 57 67 58 38 40 51
44 36 41 40 50 51 42 30 21 17 16 16 14 12 11 9 8 8 8 8 7 6 6 7 7 7 8 10 8 7 8 8 10 17 38 62 64 94 100 100 77 65 43 43 52
44 39 41 39 51 42 38 26 20 18 18 16 13 12 11 9 8 8 8 7 7 6 6 7 6 7 6 7 8 9 7 8 8 10 11 17 35 46 74 98 88 80 58 56 53
47 43 41 40 41 40 30 20 19 19 18 15 13 12 10 10 8 8 7 7 7 6 6 7 6 6 6 6 7 8 9 8 8 9 8 9 12 9 42 62 75 96 84 71 63
41 36 37 38 39 40 27 21 18 18 18 14 13 11 9 11 10 8 7 7 7 7 7 7 7 6 6 6 6 7 8 8 7 8 7 9 9 6 12 43 60 67 76 90 67
33 32 35 40 42 42 32 21 18 19 18 16 13 11 9 10 10 8 7 8 8 10 11 9 8 7 7 6 6 7 8 9 8 8 8 10 9 8 9 12 30 51 71 79 67
32 34 32 40 47 46 38 22 18 18 17 15 13 12 11 9 8 10 8 9 10 12 12 12 13 7 8 7 7 8 8 9 9 11 7 9 8 6 10 9 13 21 45 62 79
38 36 33 38 50 53 48 22 18 17 17 15 12 12 11 10 8 8 9 9 10 10 10 12 14 7 9 9 8 8 8 9 9 9 8 10 9 8 9 9 10 13 26 87 100
41 40 40 38 52 61 49 27 18 17 16 15 13 12 12 9 8 9 8 9 8 9 9 10 13 9 8 9 8 8 8 8 9 9 10 10 11 8 8 10 10 12 14 35 100
40 42 43 42 45 63 39 27 19 18 16 14 12 12 11 9 10 8 10 8 8 8 10 11 12 10 10 11 9 8 9 8 9 9 9 11 14 9 7 9 10 11 13 14 56
43 48 47 45 47 60 43 26 19 16 16 16 13 13 11 9 11 10 9 8 9 9 9 11 11 10 10 12 11 10 10 8 8 10 10 11 13 9 7 9 10 11 11 13 19
54 54 58 47 52 55 60 25 20 17 15 15 13 12 11 12 9 11 10 8 7 9 8 10 11 10 10 10 12 11 10 10 8 10 12 11 12 10 7 10 10 11 11 13 14
60 57 66 52 55 52 68 28 20 18 15 15 14 12 10 12 11 8 12 9 7 9 10 11 10 10 10 9 9 11 11 10 11 10 12 11 10 10 7 8 8 10 11 11 15
58 59 65 60 57 56 69 44 23 18 15 15 15 14 11 11 12 11 10 11 11 8 11 11 10 12 12 8 10 9 10 12 13 13 12 13 11 10 8 7 7 9 10 11 14